Total_Precipitation_Accumulation
0.02 0.07 0.14 0.28 0.67 1.09 1.07 0.65 0.43 0.22 0.25 0.36 0.49 0.56 0.52 0.51 0.64 0.97 0.50 0.19 0.08 0.05 0.08 0.13 0.21 0.16 0.14 0.14 0.17 0.17 0.18 0.17 0.16 0.13 0.12 0.12 0.14 0.17 0.21 0.27 0.30 0.32 0.34 0.36 0.36 0.38 0.38 0.39 0.39
0.04 0.09 0.17 0.43 0.88 0.99 0.82 0.50 0.27 0.20 0.24 0.37 0.44 0.39 0.36 0.32 0.28 0.20 0.24 0.24 0.14 0.06 0.06 0.06 0.13 0.16 0.12 0.12 0.15 0.17 0.17 0.15 0.15 0.14 0.14 0.15 0.19 0.24 0.29 0.35 0.35 0.34 0.34 0.32 0.32 0.35 0.31 0.36 0.41
0.06 0.10 0.23 0.52 0.71 0.60 0.47 0.30 0.23 0.23 0.32 0.42 0.42 0.34 0.34 0.38 0.22 0.13 0.18 0.21 0.14 0.06 0.05 0.07 0.10 0.13 0.12 0.12 0.15 0.16 0.16 0.15 0.15 0.15 0.18 0.20 0.25 0.29 0.30 0.33 0.34 0.33 0.32 0.33 0.34 0.35 0.28 0.30 0.38
0.06 0.12 0.27 0.39 0.37 0.32 0.27 0.23 0.21 0.22 0.37 0.54 0.57 0.40 0.28 0.26 0.20 0.15 0.16 0.13 0.09 0.07 0.05 0.08 0.13 0.13 0.12 0.13 0.16 0.18 0.15 0.16 0.17 0.16 0.19 0.24 0.28 0.31 0.30 0.31 0.30 0.31 0.33 0.33 0.35 0.32 0.31 0.35 0.39
0.06 0.15 0.37 0.33 0.26 0.25 0.23 0.20 0.20 0.23 0.31 0.55 0.64 0.58 0.44 0.35 0.27 0.20 0.21 0.11 0.07 0.07 0.08 0.10 0.15 0.14 0.13 0.14 0.16 0.17 0.16 0.17 0.17 0.16 0.18 0.23 0.28 0.30 0.29 0.28 0.29 0.31 0.34 0.31 0.29 0.29 0.37 0.45 0.54
0.08 0.17 0.24 0.24 0.17 0.14 0.14 0.16 0.23 0.27 0.44 0.54 0.55 0.62 0.60 0.48 0.38 0.24 0.25 0.15 0.09 0.07 0.08 0.12 0.16 0.15 0.15 0.16 0.17 0.18 0.18 0.18 0.18 0.19 0.19 0.22 0.26 0.30 0.29 0.29 0.30 0.31 0.33 0.33 0.32 0.30 0.37 0.43 0.52
0.06 0.13 0.15 0.19 0.14 0.11 0.10 0.14 0.27 0.34 0.61 0.74 0.78 0.72 0.75 0.66 0.43 0.30 0.29 0.23 0.21 0.16 0.11 0.14 0.15 0.17 0.19 0.20 0.20 0.21 0.22 0.22 0.22 0.22 0.22 0.23 0.23 0.27 0.30 0.32 0.31 0.32 0.34 0.35 0.36 0.37 0.39 0.40 0.48
0.02 0.04 0.09 0.11 0.10 0.09 0.10 0.12 0.23 0.32 0.52 0.59 0.72 0.83 0.97 0.77 0.50 0.42 0.42 0.41 0.41 0.40 0.34 0.25 0.23 0.25 0.24 0.25 0.26 0.27 0.27 0.27 0.27 0.25 0.28 0.33 0.34 0.34 0.37 0.37 0.39 0.40 0.40 0.44 0.47 0.49 0.51 0.54 0.57
0.01 0.02 0.05 0.07 0.06 0.06 0.07 0.13 0.19 0.34 0.44 0.46 0.60 0.73 0.88 0.65 0.57 0.62 0.72 0.74 0.71 0.69 0.68 0.50 0.42 0.36 0.37 0.35 0.32 0.39 0.39 0.39 0.40 0.42 0.46 0.60 0.81 0.76 0.76 0.61 0.63 0.63 0.63 0.67 0.71 0.73 0.76 0.74 0.72
0.01 0.02 0.03 0.02 0.03 0.04 0.07 0.13 0.20 0.33 0.70 0.88 1.01 0.92 0.76 0.73 0.76 0.80 0.88 0.88 0.92 0.91 0.76 0.71 0.70 0.53 0.52 0.53 0.57 0.78 0.75 0.75 0.80 0.86 0.85 1.14 1.25 1.19 0.89 0.86 1.05 1.09 1.13 1.12 1.17 1.30 1.26 1.04 0.86
0.01 0.02 0.01 0.01 0.01 0.02 0.05 0.11 0.13 0.28 0.80 1.33 1.46 1.14 0.80 0.89 1.00 1.08 1.12 1.18 1.07 1.08 0.93 1.02 0.98 0.82 0.78 0.93 0.80 0.94 1.17 1.31 1.30 1.27 1.41 1.56 1.34 1.14 1.02 1.16 1.37 1.42 1.47 1.48 1.63 1.86 1.66 1.64 1.60
0.00 0.00 0.00 0.00 0.01 0.02 0.04 0.12 0.16 0.29 0.74 1.17 1.20 0.96 0.79 0.98 1.12 1.35 1.45 1.58 1.62 1.57 1.51 1.50 1.51 1.43 1.35 1.19 1.18 1.12 1.15 1.25 1.41 1.46 1.44 1.63 1.67 1.60 1.50 1.49 1.47 1.51 1.62 1.87 1.92 2.07 2.17 2.23 2.02
0.00 0.00 0.00 0.00 0.01 0.03 0.06 0.11 0.21 0.38 0.51 0.57 0.68 0.72 0.82 1.09 1.38 1.72 1.88 2.03 2.09 2.30 2.40 2.39 2.25 1.98 1.97 1.89 1.68 1.38 1.40 1.36 1.38 1.61 1.66 1.74 1.85 1.92 1.90 1.78 1.73 1.52 1.61 1.91 2.19 2.11 2.28 2.45 2.32
0.00 0.00 0.01 0.01 0.01 0.03 0.05 0.11 0.25 0.45 0.47 0.50 0.59 0.65 0.79 1.19 1.70 2.17 2.24 2.33 2.53 3.11 3.49 3.28 3.07 2.72 2.55 2.44 2.26 2.10 1.84 1.74 1.57 1.67 1.79 1.95 2.10 2.16 2.12 1.93 1.84 1.58 1.56 1.80 2.07 2.09 2.29 2.34 2.35
0.01 0.01 0.03 0.04 0.03 0.08 0.09 0.19 0.40 0.59 0.48 0.51 0.66 0.72 0.80 1.17 1.62 2.35 2.69 2.88 3.11 3.75 4.26 4.00 3.85 3.76 3.49 3.30 2.87 2.38 2.05 1.86 1.97 2.06 2.17 2.28 2.36 2.39 2.33 2.15 1.87 1.75 1.85 1.94 1.95 2.02 2.40 2.27 2.17
0.01 0.01 0.06 0.08 0.06 0.10 0.13 0.44 0.61 0.64 0.55 0.58 0.83 0.81 0.82 1.12 1.61 2.32 2.91 3.35 3.66 3.97 4.33 4.63 4.36 4.64 4.51 4.13 3.58 3.06 2.78 2.62 2.49 2.42 2.49 2.36 2.34 2.36 2.46 2.14 1.79 1.92 2.09 2.12 2.07 2.11 2.33 2.35 2.44
0.01 0.03 0.07 0.11 0.11 0.11 0.16 0.55 0.70 0.51 0.56 0.69 0.85 0.91 0.97 1.21 1.55 2.03 2.66 3.19 3.71 4.23 4.70 5.11 5.33 5.39 4.95 4.52 4.05 3.71 3.45 3.17 2.77 2.32 2.08 1.92 1.81 1.77 1.79 1.51 1.42 1.60 1.70 1.59 1.52 1.80 2.00 2.09 2.21
0.02 0.05 0.11 0.23 0.19 0.12 0.18 0.45 0.60 0.54 0.56 0.75 0.95 0.94 1.02 1.22 1.57 1.96 2.48 2.94 3.53 4.33 5.16 5.57 5.66 5.26 4.81 4.39 3.84 3.55 3.26 2.96 2.60 2.15 1.77 1.52 1.44 1.37 1.39 1.15 1.10 1.34 1.45 1.41 1.51 1.64 1.64 1.58 1.65
0.02 0.05 0.12 0.20 0.13 0.13 0.24 0.44 0.54 0.61 0.67 0.84 1.00 1.00 1.06 1.17 1.52 1.95 2.43 2.94 3.59 4.44 5.36 5.69 5.38 4.81 4.32 3.83 3.25 2.77 2.47 2.24 2.12 1.87 1.55 1.41 1.38 1.37 1.44 1.19 1.26 1.34 1.36 1.34 1.37 1.44 1.37 1.18 1.34
0.05 0.07 0.12 0.16 0.11 0.13 0.21 0.43 0.65 0.78 0.88 0.85 0.90 1.00 0.98 1.18 1.57 2.06 2.63 3.05 3.39 3.91 4.66 4.91 4.51 3.84 3.24 2.89 2.67 2.43 2.28 1.95 1.72 1.62 1.48 1.27 1.23 1.24 1.24 1.20 1.01 1.05 1.14 1.05 1.07 1.27 1.30 1.10 1.20
0.07 0.08 0.12 0.15 0.08 0.13 0.21 0.51 0.82 0.95 0.81 0.65 0.57 0.68 0.73 0.91 1.41 2.12 2.62 2.90 3.18 3.39 3.38 3.47 3.32 2.79 2.42 2.27 2.20 2.13 2.12 1.88 1.59 1.44 1.27 1.11 1.05 1.02 1.04 1.00 0.95 1.02 1.01 1.04 1.04 1.08 1.16 1.08 1.01
0.07 0.05 0.05 0.05 0.07 0.21 0.30 0.77 1.05 0.97 0.84 0.66 0.51 0.50 0.55 0.78 1.25 1.99 2.25 2.32 2.41 2.52 2.34 2.33 2.37 2.17 2.06 1.95 1.89 1.73 1.52 1.40 1.30 1.28 1.21 1.11 1.01 0.95 0.91 0.91 0.84 0.89 0.91 1.07 0.92 0.95 1.02 1.03 0.89
0.05 0.04 0.04 0.07 0.11 0.25 0.43 0.74 1.05 0.93 0.92 0.68 0.49 0.45 0.54 0.66 0.94 1.29 1.34 1.44 1.54 1.64 1.69 1.84 2.04 2.01 1.89 1.84 1.89 1.85 1.55 1.37 1.29 1.26 1.27 1.16 1.03 0.94 0.90 0.88 0.87 0.85 0.83 0.88 0.91 1.00 0.95 0.93 0.87
0.04 0.05 0.11 0.23 0.34 0.66 0.67 0.73 1.07 0.95 0.76 0.53 0.43 0.47 0.42 0.46 0.64 0.85 0.90 0.93 0.99 1.06 1.18 1.37 1.73 1.84 1.74 1.68 1.70 1.66 1.55 1.49 1.35 1.18 1.11 1.09 1.04 1.01 1.01 0.95 0.96 0.89 0.85 0.86 0.86 0.88 0.86 0.93 0.97
0.05 0.09 0.26 0.60 1.00 1.12 0.69 0.71 1.01 0.66 0.44 0.33 0.29 0.32 0.35 0.47 0.57 0.68 0.82 0.83 0.76 0.75 0.86 1.03 1.25 1.36 1.39 1.45 1.54 1.58 1.60 1.54 1.36 1.22 1.10 1.06 0.97 0.95 1.05 1.04 1.01 0.97 0.95 0.91 0.89 0.87 0.84 0.91 1.00
0.07 0.09 0.18 0.36 0.47 0.59 0.59 0.97 1.10 0.57 0.38 0.27 0.21 0.22 0.35 0.42 0.43 0.46 0.54 0.53 0.52 0.59 0.67 0.82 0.92 0.99 1.08 1.17 1.29 1.39 1.39 1.36 1.26 1.28 1.20 1.10 0.99 0.94 1.01 1.03 0.95 0.91 0.90 0.88 0.97 0.87 0.84 0.93 1.00
0.06 0.06 0.07 0.08 0.14 0.36 0.65 0.89 0.83 0.52 0.34 0.24 0.19 0.18 0.28 0.32 0.30 0.28 0.28 0.29 0.35 0.49 0.60 0.66 0.72 0.79 0.89 0.97 1.10 1.20 1.22 1.20 1.23 1.24 1.16 1.08 1.08 1.01 1.02 0.95 0.95 0.93 0.88 0.90 0.97 0.92 0.94 0.98 0.96
0.07 0.06 0.06 0.05 0.15 0.33 0.60 0.89 0.91 0.59 0.41 0.30 0.21 0.20 0.25 0.25 0.23 0.22 0.20 0.19 0.20 0.24 0.38 0.52 0.58 0.71 0.85 0.90 0.90 0.93 1.08 1.08 1.11 1.10 1.04 1.09 1.10 1.04 1.09 1.08 0.99 0.98 0.96 1.01 1.09 1.06 1.03 1.13 1.16
0.06 0.06 0.06 0.06 0.08 0.19 0.44 0.67 0.57 0.41 0.27 0.23 0.21 0.21 0.26 0.27 0.26 0.19 0.17 0.16 0.16 0.18 0.26 0.37 0.46 0.58 0.68 0.71 0.74 0.86 0.96 0.97 0.96 0.96 0.93 0.96 0.96 0.96 0.99 1.02 1.03 1.03 1.07 1.24 1.46 1.42 1.35 1.36 1.40
0.06 0.06 0.07 0.09 0.09 0.13 0.24 0.34 0.27 0.27 0.22 0.21 0.21 0.23 0.30 0.37 0.35 0.26 0.22 0.18 0.21 0.21 0.21 0.28 0.32 0.35 0.41 0.50 0.57 0.70 0.85 0.85 0.83 0.86 0.96 0.99 0.94 0.87 0.80 0.84 0.91 0.90 1.01 1.21 1.49 1.61 1.60 1.58 1.50